Location: Nelson
(41.2830°S, 173.2830°E)
Time: 23:48:18
(UTC+13:00)

Terra - Pass Details

Date: 24 January 2019
Orbit: 701 x 703 km, 98.2° (Epoch: 18 October)

Event Time Altitude Azimuth Distance (km) Brightness Sun altitude
Rises 23:11:21 0° 150° (SSE) 3,129 5.5 -20.5°
Reaches altitude 10° 23:14:18 10° 132° (SE) 2,201 4.4 -20.8°
Enters shadow 23:16:38 17° 104° (ESE) 1,745 3.6 -21.1°
